| time (UTC) | temp F | wind direction | speed knots | gust knots | rain 1hr in | rain 24hr in | rain mn in | humidity % | barometer mb |
| 20260502181506 | 71 | 2 | 6.1 | 11.3 | 0.00 | 1.74 | 0.06 | 62 | 1018.9 |
| 20260502163056 | 67 | 325 | 7.8 | 12.2 | 0.00 | 2.24 | 0.06 | 70 | 1019.1 |
| 20260502161547 | 66 | 20 | 6.1 | 14.8 | 0.00 | 2.24 | 0.06 | 71 | 1019.1 |
| 20260502151534 | 63 | 356 | 7.8 | 12.2 | 0.00 | 2.29 | 0.06 | 78 | 1018.9 |
| 20260502123021 | 56 | 24 | 3.5 | 12.2 | 0.00 | 2.29 | 0.06 | 91 | 1017.3 |
| 20260502121517 | 56 | 345 | 8.7 | 8.7 | 0.00 | 2.29 | 0.06 | 92 | 1017.2 |
| 20260502114512 | 0 | 0.0 | 0.0 | 0.00 | 2.29 | 0.06 | 1016.9 | ||
| 20260502113004 | 0 | 0.0 | 0.0 | 0.00 | 2.29 | 0.06 | 1016.8 | ||
| 20260502111530 | 0 | 0.0 | 0.0 | 0.00 | 2.29 | 0.06 | 1016.6 | ||
| 20260502110026 | 0 | 0.0 | 0.0 | 0.00 | 2.29 | 0.06 | 1016.5 | ||
| 20260502104518 | 0 | 0.0 | 0.0 | 0.00 | 2.29 | 0.06 | 1016.1 | ||
| 20260502103014 | 0 | 0.0 | 0.0 | 0.00 | 2.29 | 0.06 | 1015.9 | ||
| 20260502101509 | 0 | 0.0 | 0.0 | 0.00 | 2.29 | 0.06 | 1015.5 | ||
| 20260502071526 | 57 | 358 | 7.0 | 13.9 | 0.00 | 2.29 | 0.06 | 93 | 1014.7 |
| 20260502070032 | 57 | 21 | 7.0 | 15.6 | 0.00 | 2.29 | 0.06 | 94 | 1014.5 |
| 20260502064526 | 57 | 43 | 7.0 | 13.9 | 0.00 | 2.94 | 0.06 | 94 | 1014.3 |
| 20260502063024 | 57 | 9 | 5.2 | 14.8 | 0.00 | 2.94 | 0.06 | 95 | 1014.4 |
| 20260502061519 | 57 | 5 | 6.1 | 17.4 | 0.00 | 2.94 | 0.06 | 96 | 1014.3 |
| 20260502060018 | 56 | 51 | 9.6 | 16.5 | 0.00 | 2.94 | 0.06 | 97 | 1014.3 |
| 20260502054516 | 56 | 349 | 10.4 | 17.4 | 0.00 | 2.95 | 0.06 | 97 | 1014.4 |
| 20260502053014 | 56 | 342 | 7.8 | 14.8 | 0.00 | 2.95 | 0.06 | 98 | 1014.7 |
| 20260502051522 | 56 | 23 | 7.0 | 12.2 | 0.00 | 2.95 | 0.06 | 98 | 1014.5 |
| 20260502050011 | 56 | 354 | 5.2 | 17.4 | 0.01 | 2.95 | 0.06 | 98 | 1014.6 |
| 20260502044510 | 55 | 343 | 9.6 | 19.1 | 0.01 | 2.96 | 0.06 | 98 | 1014.7 |
| 20260502043002 | 56 | 20 | 8.7 | 13.9 | 0.01 | 2.96 | 0.06 | 98 | 1014.5 |
| 20260502041559 | 56 | 23 | 7.0 | 12.2 | 0.01 | 2.96 | 0.06 | 98 | 1014.5 |
| 20260502040056 | 57 | 353 | 7.0 | 12.2 | 0.01 | 2.95 | 0.05 | 98 | 1014.0 |
| 20260502034555 | 57 | 22 | 6.1 | 12.2 | 0.02 | 2.95 | 0.05 | 99 | 1013.9 |
| 20260502033056 | 56 | 337 | 7.0 | 13.9 | 0.03 | 2.95 | 0.05 | 98 | 1013.1 |
| 20260502031550 | 57 | 19 | 7.0 | 13.9 | 0.04 | 2.95 | 0.05 | 98 | 1012.9 |
| 20260502030054 | 58 | 4 | 5.2 | 13.0 | 0.04 | 2.94 | 0.04 | 99 | 1012.3 |
| 20260502024544 | 58 | 14 | 7.8 | 13.0 | 0.03 | 2.96 | 0.03 | 98 | 1012.9 |
| 20260502023052 | 58 | 360 | 6.1 | 10.4 | 0.05 | 2.95 | 0.02 | 99 | 1012.7 |
| 20260502021541 | 58 | 347 | 6.1 | 11.3 | 0.06 | 2.94 | 0.01 | 99 | 1012.6 |
| 20260502020031 | 58 | 354 | 8.7 | 15.6 | 0.06 | 2.93 | 0.00 | 99 | 1012.5 |
| 20260502014534 | 59 | 11 | 5.2 | 11.3 | 0.10 | 2.93 | 2.17 | 99 | 1012.2 |
| 20260502013023 | 59 | 347 | 6.1 | 13.0 | 0.14 | 2.90 | 2.14 | 99 | 1011.6 |
| 20260502011522 | 59 | 3 | 5.2 | 10.4 | 0.22 | 2.88 | 2.12 | 99 | 1011.1 |
| 20260502010021 | 59 | 15 | 4.3 | 10.4 | 0.23 | 2.87 | 2.11 | 99 | 1009.7 |
| 20260502004520 | 59 | 350 | 6.1 | 13.0 | 0.19 | 2.83 | 2.06 | 98 | 1010.0 |
| 20260502003020 | 60 | 340 | 6.1 | 13.0 | 0.13 | 2.76 | 2.00 | 99 | 1010.5 |
| 20260502001520 | 59 | 357 | 7.0 | 13.0 | 0.03 | 2.66 | 1.90 | 99 | 1009.6 |
| 20260502000014 | 59 | 25 | 7.8 | 14.8 | 0.01 | 2.64 | 1.88 | 98 | 1009.8 |
| 20260501234514 | 60 | 8 | 8.7 | 13.9 | 0.02 | 2.64 | 1.88 | 98 | 1009.7 |
| 20260501233007 | 60 | 18 | 4.3 | 13.0 | 0.01 | 2.63 | 1.87 | 99 | 1008.5 |
| 20260501231510 | 60 | 339 | 7.8 | 14.8 | 0.01 | 2.63 | 1.87 | 99 | 1008.6 |
| 20260501230003 | 61 | 6 | 6.1 | 14.8 | 0.01 | 2.63 | 1.87 | 99 | 1009.0 |
| 20260501224502 | 60 | 352 | 4.3 | 13.0 | 0.01 | 2.68 | 1.86 | 99 | 1009.3 |
| 20260501223111 | 61 | 28 | 4.3 | 13.0 | 0.04 | 2.68 | 1.86 | 98 | 1009.3 |
| 20260501221613 | 61 | 349 | 6.1 | 14.8 | 0.16 | 2.68 | 1.86 | 99 | 1009.7 |
| 20260501220057 | 61 | 334 | 5.2 | 9.6 | 0.21 | 2.68 | 1.86 | 99 | 1009.8 |
| 20260501214557 | 61 | 330 | 4.3 | 10.4 | 0.24 | 2.67 | 1.85 | 99 | 1009.5 |
| 20260501213023 | 62 | 328 | 9.6 | 15.6 | 0.27 | 2.63 | 1.81 | 98 | 1007.6 |
| 20260501211522 | 62 | 8 | 5.2 | 12.2 | 0.36 | 2.52 | 1.70 | 98 | 1009.1 |
| 20260501210020 | 63 | 350 | 4.3 | 10.4 | 0.42 | 2.47 | 1.65 | 99 | 1009.4 |
| 20260501204518 | 63 | 337 | 5.2 | 12.2 | 1.02 | 2.42 | 1.60 | 98 | 1008.6 |
| 20260501203035 | 63 | 2 | 4.3 | 9.6 | 1.01 | 2.36 | 1.54 | 99 | 1007.3 |
| 20260501201516 | 63 | 336 | 7.0 | 14.8 | 0.83 | 2.15 | 1.33 | 99 | 1008.4 |
| 20260501200013 | 63 | 343 | 4.3 | 13.0 | 0.74 | 2.04 | 1.23 | 98 | 1007.9 |
| 20260501194516 | 63 | 127 | 2.6 | 12.2 | 0.09 | 1.40 | 0.57 | 99 | 1009.0 |
| 20260501193010 | 63 | 332 | 5.2 | 13.9 | 0.04 | 1.35 | 0.53 | 98 | 1007.0 |
| 20260501191509 | 63 | 6 | 7.0 | 10.4 | 0.01 | 1.32 | 0.50 | 98 | 1009.0 |
| 20260501190005 | 63 | 8 | 7.0 | 13.0 | 0.00 | 1.31 | 0.49 | 98 | 1008.0 |
| 20260501184513 | 63 | 338 | 6.1 | 17.4 | 0.00 | 1.31 | 0.49 | 98 | 1009.0 |
| 20260501183004 | 63 | 4 | 5.2 | 13.0 | 0.00 | 1.31 | 0.49 | 98 | 1008.1 |